Weather in San Antonio

United States     29°25′33″N   98°29′28″W
temp.,
°C
wind,
m/s
gust,
m/s
humid.,
%
clouds,
%
prec.,
mm/h
press.,
hPa
HPBL,
m
18 september, sat
sat1801:00+27e24630 0.5 1015144
04:00+25se23870 0.8 101588
07:00+24sse11900 1.8 101663
10:00+28wsw11720 0.3 1017347
13:00+33n254115 0.6 10162259
16:00+36nne55278 0.0 10123331
19:00+34ne463125 0.0 1012882
22:00+28ese49550 0.0 1014407
19 september, sun
sun1901:00+27ssw12630 0.0 1014116
04:00+25sw22690 0.0 101391
07:00+25w22740 0.0 101376
10:00+29w23570 0.0 1014618
13:00+34w12350 0.0 10122432
16:00+36wnw12250 0.0 10092649
19:00+35nw11274 0.0 1008600
22:00+30e35330 0.0 1010113
20 september, mon
mon2001:00+26s38640 0.0 1011339
04:00+25ssw36710 0.0 1011235
07:00+24ssw24750 0.0 1011147
10:00+29ssw35570 0.0 1013626
13:00+35ssw44320 0.0 10111873
16:00+38sse32221 0.0 10083273
19:00+35sse452538 0.0 1008665
22:00+29se611530 0.0 1011461
21 september, tue
tue2101:00+26s37682 0.0 1013311
04:00+25s26828 0.0 1013214
07:00+24ssw138857 0.0 1015126
10:00+29s22645 0.0 1017535
13:00+35ne34355 0.0 10171720
16:00+37ene572646 0.0 10143303
19:00+34e573295 0.1 1015953
22:00+29nne695178 0.0 1018496
22 september, wed
wed2201:00+28ne5105797 0.1 1019554
04:00+25ne7133972 0.2 1020578
07:00+23nne61334100 0.7 1021498
10:00+26ne693369 0.0 1022679
13:00+31nne563089 0.0 10201269
16:00+33nne6621100 0.0 10181692
19:00+30nne57203 0.0 1018837
22:00+25nne4102357 0.0 1019325